Location: Daytona Beach
(29.2106°N, 81.0231°W)
Time: 16:10:37
(UTC-04:00)

X-37B - Pass Details

Date: 20 June 2021
Orbit: 383 x 392 km, 45.0° (Epoch: 01 July)

Event Time Altitude Azimuth Distance (km) Brightness Sun altitude
Rises 05:47:32 0° 313° (NW) 2,259 4.3 -8.0°
Reaches altitude 10° 05:49:39 10° 320° (NW) 1,405 3.3 -7.6°
Maximum altitude 05:52:42 45° 34° (NE) 535 1.9 -7.0°
Drops below altitude 10° 05:55:45 10° 109° (ESE) 1,404 4.0 -6.4°
Sets 05:57:52 0° 116° (ESE) 2,257 5.0 -6.1°
